Glasgow, United Kingdom

1:22 AM BST on July 28, 2017 (GMT +0100)
Glasgow

Weather History for EGPF - October, 2011

Change the Weather History Date:

Monday, October 31, 2011

  Actual Average Record
Temperature  
Mean Temperature 55 °F -  
Max Temperature 60 °F 47 °F 64 °F (2014)
Min Temperature 50 °F 37 °F 30 °F (2008)
Degree Days  
Heating Degree Days 10    
Growing Degree Days 5 (Base 50)    
Moisture  
Dew Point 53 °F    
Average Humidity 87    
Maximum Humidity 94    
Minimum Humidity 72    
Precipitation  
Precipitation 0.00 in - - ()
Sea Level Pressure  
Sea Level Pressure 29.61 in    
Wind  
Wind Speed 8 mph ()    
Max Wind Speed 18 mph    
Max Gust Speed -    
Visibility 5.7 miles    
Events Rain    
Averages and records for this station are not official NWS values.
T = Trace of Precipitation, MM = Missing Value Source: Averaged Metar Reports

Daily Weather History Graph

Daily Weather History Graph

Search for Another Location

Airport or City:

Trip Planner

Search our weather history database for the weather conditions in past years. The results will help you decide how hot, cold, wet, or windy it might be!

Date:

Astronomy

Oct. 31, 2011 Rise Set
Actual Time 7:21 AM GMT 4:40 PM GMT
Civil Twilight 6:41 AM GMT 5:19 PM GMT
Nautical Twilight 5:58 AM GMT 6:03 PM GMT
Astronomical Twilight 5:15 AM GMT 6:46 PM GMT
Moon 12:45 PM GMT (10/31) 8:35 PM GMT (10/31)
Length of Visible Light 10h 37m
Length of Day
9h 19m
Waxing Crescent, 28% of the Moon is Illuminated
Oct 31
Waxing Crescent
Nov 2
First Quarter
Nov 10
Full
Nov 18
Last Quarter
Nov 25
New

Hourly Weather History & Observations

Time (GMT) Temp. Dew Point Humidity Pressure Visibility Wind Dir Wind Speed Gust Speed Precip Events Conditions
12:20 AM 59.0 °F 55.4 °F 88% 29.74 in 6.2 mi South 6.9 mph - N/A   Overcast
12:50 AM 59.0 °F 55.4 °F 88% 29.74 in 6.2 mi SSE 6.9 mph - N/A   Overcast
1:20 AM 59.0 °F 55.4 °F 88% 29.74 in 6.2 mi SE 8.1 mph - N/A   Overcast
1:50 AM 59.0 °F 55.4 °F 88% 29.71 in 6.2 mi SSE 8.1 mph - N/A   Overcast
2:20 AM 59.0 °F 55.4 °F 88% 29.71 in 6.2 mi East 5.8 mph - N/A   Overcast
2:50 AM 59.0 °F 55.4 °F 88% 29.71 in 6.2 mi ESE 5.8 mph - N/A   Overcast
3:20 AM 59.0 °F 55.4 °F 88% 29.68 in 6.2 mi SSE 9.2 mph - N/A   Overcast
3:50 AM 59.0 °F 55.4 °F 88% 29.68 in 6.2 mi South 8.1 mph - N/A Rain Light Rain
4:20 AM 59.0 °F 55.4 °F 88% 29.68 in 6.2 mi SE 4.6 mph - N/A   Overcast
4:50 AM 59.0 °F 55.4 °F 88% 29.65 in 6.2 mi ESE 4.6 mph - N/A   Overcast
5:20 AM 59.0 °F 55.4 °F 88% 29.65 in 4.3 mi SE 6.9 mph - N/A Rain Rain
5:50 AM 59.0 °F 55.4 °F 88% 29.65 in 6.2 mi SSE 10.4 mph - N/A   Mostly Cloudy
6:20 AM 59.0 °F 55.4 °F 88% 29.65 in 6.2 mi SE 8.1 mph - N/A Rain Light Rain
6:50 AM 59.0 °F 55.4 °F 88% 29.62 in 6.2 mi SSE 8.1 mph - N/A   Mostly Cloudy
7:20 AM 59.0 °F 55.4 °F 88% 29.62 in 6.2 mi SSE 9.2 mph - N/A   Mostly Cloudy
7:50 AM 59.0 °F 55.4 °F 88% 29.62 in 6.2 mi ESE 8.1 mph - N/A   Mostly Cloudy
8:20 AM 59.0 °F 55.4 °F 88% 29.62 in 6.2 mi SSE 8.1 mph - N/A   Mostly Cloudy
8:50 AM 60.8 °F 55.4 °F 82% 29.62 in 6.2 mi South 9.2 mph - N/A   Mostly Cloudy
9:20 AM 60.8 °F 55.4 °F 82% 29.62 in 6.2 mi South 15.0 mph - N/A Rain Light Rain
9:50 AM 60.8 °F 55.4 °F 82% 29.62 in 6.2 mi South 11.5 mph - N/A Rain Light Rain
10:20 AM 59.0 °F 55.4 °F 88% 29.62 in 6.2 mi South 13.8 mph - N/A Rain Light Rain
10:50 AM 60.8 °F 55.4 °F 82% 29.62 in 4.3 mi South 16.1 mph - N/A Rain Light Rain
11:20 AM 59.0 °F 55.4 °F 88% 29.62 in 6.2 mi South 13.8 mph - N/A   Mostly Cloudy
11:50 AM 59.0 °F 55.4 °F 88% 29.62 in 4.3 mi South 11.5 mph - N/A Rain Light Rain
12:20 PM 60.8 °F 55.4 °F 82% 29.59 in 6.2 mi South 16.1 mph - N/A Rain Light Rain
12:50 PM 60.8 °F 53.6 °F 77% 29.59 in 6.2 mi South 11.5 mph - N/A   Mostly Cloudy
1:20 PM 60.8 °F 53.6 °F 77% 29.59 in 6.2 mi South 18.4 mph - N/A   Partly Cloudy
1:50 PM 60.8 °F 53.6 °F 77% 29.59 in 6.2 mi South 15.0 mph - N/A   Mostly Cloudy
2:20 PM 60.8 °F 53.6 °F 77% 29.56 in 6.2 mi South 18.4 mph - N/A   Overcast
2:50 PM 60.8 °F 53.6 °F 77% 29.56 in 6.2 mi South 17.3 mph - N/A   Mostly Cloudy
3:20 PM 60.8 °F 51.8 °F 72% 29.53 in 6.2 mi South 15.0 mph - N/A   Mostly Cloudy
3:50 PM 59.0 °F 51.8 °F 77% 29.53 in 6.2 mi SSE 13.8 mph - N/A   Mostly Cloudy
4:20 PM 59.0 °F 51.8 °F 77% 29.53 in 6.2 mi South 12.7 mph - N/A   Overcast
4:50 PM 57.2 °F 53.6 °F 88% 29.53 in - South 11.5 mph - N/A Rain Light Rain
5:20 PM 57.2 °F 53.6 °F 88% 29.50 in 2.5 mi South 11.5 mph - N/A Rain Rain
5:50 PM 53.6 °F 51.8 °F 94% 29.53 in - WSW 6.9 mph - N/A Rain Light Rain
6:20 PM 51.8 °F 50.0 °F 94% 29.53 in - WNW 5.8 mph - N/A Rain Light Rain
6:50 PM 51.8 °F 50.0 °F 94% 29.53 in 3.7 mi WNW 6.9 mph - N/A Rain Rain
7:20 PM 51.8 °F 50.0 °F 94% 29.53 in 3.1 mi WNW 5.8 mph - N/A Rain Light Rain
7:50 PM 50.0 °F 48.2 °F 94% 29.53 in - West 8.1 mph - N/A Rain Rain
8:20 PM 50.0 °F 48.2 °F 94% 29.56 in 3.7 mi WNW 4.6 mph - N/A Rain Light Rain
8:50 PM 50.0 °F 48.2 °F 94% 29.56 in 3.7 mi Variable 2.3 mph - N/A Rain Light Rain
9:20 PM 50.0 °F 48.2 °F 94% 29.56 in 6.2 mi ESE 3.5 mph - N/A Rain Light Rain
9:50 PM 50.0 °F 48.2 °F 94% 29.56 in 6.2 mi South 4.6 mph - N/A Rain Light Rain
10:20 PM 50.0 °F 48.2 °F 94% 29.56 in 6.2 mi SSE 5.8 mph - N/A Rain Light Rain
10:50 PM 50.0 °F 48.2 °F 94% 29.56 in 6.2 mi South 3.5 mph - N/A   Mostly Cloudy
11:20 PM 50.0 °F 46.4 °F 87% 29.56 in 6.2 mi SSE 3.5 mph - N/A   Mostly Cloudy
11:50 PM 50.0 °F 48.2 °F 94% 29.56 in 6.2 mi Variable 3.5 mph - N/A Rain Light Rain